Temperature
28 25 25 26 26 27 27 27 27 27 28 27 26 25 25 25 25 24 24 24 24 24 24 23 23 23 23 23 22 22 21 21 21 21 20 20 20 20 20 20 20 20 19 19
26 26 28 28 29 28 28 27 27 28 29 27 25 25 25 25 25 25 24 24 24 24 24 23 23 23 23 23 22 22 22 21 21 21 21 21 20 20 20 20 20 19 19 19
26 27 29 30 29 29 28 27 27 28 28 27 26 24 24 25 25 25 24 24 24 24 23 23 23 23 23 23 23 22 22 21 21 21 21 20 20 20 20 20 20 19 19 19
27 29 29 29 29 29 28 29 29 28 26 24 25 23 23 23 23 24 23 23 23 24 24 24 23 23 23 23 23 22 22 21 21 21 21 20 20 20 20 20 20 19 19 19
27 29 29 29 30 30 29 30 29 28 25 23 24 23 22 23 23 23 23 23 23 24 24 24 23 23 23 23 22 22 22 21 21 21 21 20 20 20 20 19 19 19 19 19
28 29 30 30 31 30 30 28 27 24 23 23 23 23 22 22 22 23 23 23 23 23 23 23 23 23 23 22 22 22 22 21 21 21 20 20 20 20 20 19 19 19 19 19
27 28 29 30 29 29 28 25 24 24 22 22 23 23 22 23 24 24 23 23 23 23 23 23 23 23 23 22 22 22 22 21 21 21 20 20 20 20 20 19 19 19 19 19
26 26 28 30 29 28 28 25 24 24 23 22 23 23 23 24 24 24 24 23 23 23 23 23 23 23 22 22 22 22 22 21 21 20 20 20 20 19 19 19 19 19 19 19
25 26 29 30 30 29 28 26 24 23 23 22 22 23 23 23 23 23 23 23 23 23 23 23 23 23 22 22 22 22 22 21 20 20 20 20 20 19 19 19 19 18 18 18
26 26 27 29 29 29 28 26 23 23 23 23 23 23 22 23 22 23 22 22 23 23 23 23 23 22 22 22 22 22 21 21 20 20 20 19 19 19 19 19 18 18 18 18
25 25 26 26 27 28 27 26 23 21 22 22 22 22 24 23 23 23 22 23 23 23 23 22 22 22 22 21 21 21 21 21 20 20 20 19 19 19 19 19 18 18 18 18
25 23 23 25 26 28 27 26 24 23 23 21 21 22 25 23 23 23 23 23 23 23 22 22 22 22 22 21 21 21 21 20 20 20 20 19 19 19 19 19 18 18 18 18
25 22 22 23 24 25 26 26 25 22 21 21 21 23 24 23 22 23 23 23 23 22 22 22 22 22 21 21 21 21 21 21 20 20 19 19 19 19 19 18 18 18 18 18
25 21 22 23 23 24 25 26 26 23 21 22 22 22 23 22 22 22 22 22 22 22 22 22 22 22 21 21 21 20 20 20 20 20 19 19 19 19 18 18 18 18 17 17
23 22 24 24 25 25 26 26 26 25 23 23 23 22 22 22 22 22 22 22 22 21 22 22 22 21 21 21 21 20 20 20 20 19 19 19 19 18 18 18 17 17 17 17
21 22 23 23 25 25 25 25 26 25 24 23 23 22 22 22 22 22 22 22 22 21 21 21 21 21 21 21 20 20 20 20 19 19 19 19 18 18 18 17 17 17 17 17
20 21 21 21 23 23 23 24 24 24 23 22 21 21 21 21 21 21 22 22 21 21 21 21 21 21 21 20 20 20 19 19 19 19 18 18 18 18 17 17 17 17 17 16
20 19 18 20 22 22 22 23 24 23 22 22 21 21 21 21 21 22 22 22 21 21 21 21 21 20 20 20 20 19 19 19 19 18 18 18 18 17 17 17 17 16 16 16
19 19 19 18 20 21 22 23 23 22 21 21 21 21 21 21 21 21 21 21 21 21 21 21 21 20 20 20 19 19 19 18 18 18 18 17 17 17 17 17 16 16 16 15
19 18 18 18 20 21 21 23 23 22 20 21 20 20 20 20 18 19 21 21 21 21 21 20 20 20 19 19 19 18 18 18 18 17 17 17 17 17 16 16 16 16 15 15
19 18 18 18 19 19 21 22 22 21 20 20 20 20 20 19 19 20 20 20 21 20 20 20 20 20 19 19 18 18 18 17 17 17 17 17 16 16 16 16 15 15 15 15
18 18 17 17 18 19 20 21 20 19 20 20 20 20 20 20 20 20 20 20 20 20 20 20 19 19 19 18 18 18 17 17 16 16 16 16 16 16 16 15 15 15 14 14
17 17 16 17 17 19 21 20 21 21 20 20 20 20 20 20 19 19 19 19 19 19 19 19 19 18 18 17 17 17 17 16 16 16 16 16 15 15 15 15 14 14 14 14
18 17 16 16 17 19 20 20 20 20 20 20 20 20 19 19 19 19 19 19 19 18 18 19 18 18 17 17 17 17 16 16 16 16 15 15 15 15 14 14 14 14 14 14
17 17 15 16 17 18 19 19 19 20 19 19 19 19 19 19 19 19 18 18 18 18 18 18 18 17 17 16 16 16 16 16 16 15 15 15 15 14 14 14 14 14 14 13
16 16 15 15 17 16 18 19 19 19 19 19 19 19 19 19 18 18 18 18 17 17 17 17 17 17 16 16 16 16 16 15 15 15 15 14 14 14 13 13 13 13 13 13
Wind_Speed
3 2 4 8 8 8 4 2 4 5 2 4 6 6 7 6 6 7 6 7 7 7 8 8 8 9 8 7 7 6 6 4 4 3 3 2 1 1 1 1 2 2 2 2
4 5 10 6 4 4 2 1 3 3 2 4 5 3 5 6 7 9 9 8 8 7 7 8 8 8 7 8 7 7 6 5 4 3 3 2 2 1 1 1 1 1 1 2
7 9 7 4 4 2 3 4 4 3 1 4 6 2 1 1 3 5 6 6 6 9 10 9 8 7 7 7 8 8 6 5 5 4 3 2 2 1 1 0 0 1 1 1
6 8 6 5 6 4 6 6 5 3 3 1 3 1 5 3 1 3 4 4 5 7 9 9 9 8 9 8 7 6 6 5 5 5 5 5 3 2 2 2 1 1 0 1
6 5 4 6 8 5 7 5 3 3 4 2 2 3 5 2 3 4 4 5 6 7 9 9 9 9 8 8 7 6 6 5 4 4 5 4 3 2 1 1 1 1 1 1
9 7 6 7 7 4 2 4 5 5 5 2 4 2 4 4 8 6 6 6 7 8 9 8 8 7 6 6 6 6 5 4 3 4 4 4 4 3 2 1 1 0 1 1
8 9 7 4 5 6 3 5 4 5 4 4 3 1 6 7 6 8 9 8 7 8 9 8 7 8 7 7 7 6 6 4 3 4 4 4 4 4 3 3 2 1 0 1
3 7 5 2 5 5 3 8 7 4 4 4 3 3 5 5 5 6 6 7 7 9 9 9 9 9 8 9 8 7 7 5 5 5 4 4 4 3 2 3 2 2 2 2
5 7 6 5 4 3 2 2 8 7 2 1 3 4 5 1 2 3 5 5 7 9 9 8 8 8 7 8 9 9 8 6 6 5 4 4 3 3 3 2 2 1 1 1
7 4 6 5 6 4 4 4 5 5 3 1 3 3 4 4 6 5 4 5 7 8 9 7 6 6 6 6 7 7 7 7 5 5 4 4 3 3 3 2 1 1 2 1
5 3 6 5 1 4 3 3 4 4 5 5 3 6 6 10 9 8 6 6 7 8 9 8 7 6 6 5 6 6 6 5 5 5 4 3 2 2 1 2 2 2 1 1
3 5 2 6 7 3 2 3 5 3 3 4 4 6 3 8 8 8 7 6 7 8 7 7 8 7 6 6 5 6 6 6 6 6 5 4 3 3 2 2 2 1 1 1
3 5 2 8 8 7 4 2 2 5 4 3 4 5 1 5 6 6 8 7 7 8 8 6 6 7 6 6 5 5 5 6 5 5 5 4 3 3 3 2 2 1 1 0
5 5 6 6 6 4 5 6 2 3 3 3 6 6 3 4 7 7 7 7 7 8 8 7 5 5 5 5 5 5 4 5 5 5 5 4 4 4 4 3 2 2 2 2
6 4 1 3 3 2 5 7 5 1 5 6 7 7 7 8 9 9 8 8 9 8 7 7 6 5 4 4 3 3 3 3 5 5 5 5 4 3 3 3 3 2 2 2
5 3 3 4 4 6 6 7 5 3 2 2 3 2 4 3 5 6 7 9 9 9 8 7 5 5 5 5 4 3 2 3 4 5 4 4 3 2 2 3 3 2 2 2
2 4 3 3 5 5 5 5 3 2 2 4 2 3 2 4 6 7 7 8 8 9 8 7 6 5 4 4 4 3 3 3 3 4 4 3 3 3 3 3 2 2 2 2
5 3 3 0 4 2 6 2 3 5 4 2 2 2 4 5 6 5 6 6 6 6 6 6 6 5 5 4 3 3 3 3 3 3 3 3 3 3 3 2 2 2 2 2
6 6 3 3 1 4 4 3 3 2 4 4 3 2 3 4 5 3 1 4 5 6 5 5 5 5 5 4 4 4 3 3 2 1 2 2 3 3 3 3 3 2 2 2
5 6 5 3 2 4 5 5 2 4 2 4 3 3 3 5 3 3 2 2 3 3 4 4 4 4 5 4 4 5 3 2 1 1 2 2 2 3 3 3 3 2 2 3
4 4 3 3 3 4 5 6 4 2 4 3 1 1 2 2 4 4 3 2 3 3 3 4 4 5 5 4 5 5 3 2 2 2 1 1 2 2 3 2 2 2 2 1
3 2 2 3 3 5 5 3 2 4 2 1 1 1 1 2 1 2 3 2 2 3 3 5 5 3 3 4 5 5 3 2 1 1 1 0 1 1 1 2 1 1 2 1
2 5 4 5 5 5 1 2 2 2 1 1 1 1 1 1 2 2 2 1 1 2 2 4 5 4 2 3 4 4 3 2 2 2 1 0 0 1 1 2 2 1 1 2
3 1 3 1 1 1 1 3 3 3 2 2 1 1 2 2 2 2 2 0 1 1 1 3 5 4 3 2 2 3 3 2 2 2 1 1 0 1 1 1 1 2 2 2
3 2 2 0 2 2 4 3 3 4 5 4 2 1 2 4 3 3 2 2 1 1 1 2 3 4 4 2 2 2 1 2 2 1 1 1 1 1 1 1 1 2 3 4
2 3 4 4 5 2 3 2 2 4 3 2 2 2 1 3 3 3 2 2 2 2 1 1 2 3 3 2 2 2 2 3 2 2 2 2 2 1 1 1 2 3 2 4
Wind_Direction
309 49 249 240 218 216 216 240 258 246 204 134 147 150 171 175 160 163 169 164 163 169 168 155 153 154 147 143 143 146 146 150 138 133 138 138 167 191 198 203 192 194 198 188
355 273 247 244 255 230 237 260 269 269 178 130 120 141 181 166 171 175 176 172 167 161 158 158 154 156 158 157 156 153 155 152 153 160 160 154 160 185 178 193 185 206 198 197
229 248 255 258 275 273 256 220 220 209 41 68 106 57 259 199 164 169 171 174 161 165 163 163 163 168 163 167 167 165 163 155 156 155 131 115 82 36 46 54 253 243 211 194
251 257 261 265 257 227 262 241 202 167 99 357 111 172 269 247 212 163 164 167 170 169 163 166 169 169 172 177 169 156 156 153 153 150 143 143 148 171 208 207 214 246 222 176
260 260 265 262 256 231 243 249 179 146 114 67 14 123 278 241 233 220 195 186 183 173 165 167 170 168 167 164 157 153 149 150 155 153 156 154 164 189 196 163 177 229 271 258
258 267 250 245 265 258 257 35 37 56 70 28 271 153 266 236 218 209 201 194 184 171 162 162 163 155 149 147 145 144 145 155 166 157 156 159 168 171 151 152 165 225 262 290
292 293 276 264 296 317 55 75 27 3 16 258 265 160 245 240 212 194 194 195 184 167 159 157 159 158 161 158 156 155 154 162 171 165 169 168 172 170 176 190 186 177 198 268
250 288 276 256 214 228 223 144 161 199 218 260 313 237 252 246 199 181 178 176 172 166 165 162 162 163 169 171 168 164 164 170 179 184 188 183 176 176 191 195 184 184 200 220
201 252 281 286 272 172 235 209 169 143 134 145 270 283 311 42 132 168 166 162 167 169 168 165 163 164 166 170 172 170 168 170 184 188 181 183 184 183 194 197 187 197 215 209
181 246 295 306 356 355 162 168 84 104 142 226 272 255 228 196 188 185 162 176 166 157 150 148 152 160 165 174 165 162 164 172 181 188 189 185 195 197 194 179 191 208 221 228
150 165 301 350 340 272 346 50 97 116 151 157 220 263 220 196 187 169 171 174 164 156 155 149 144 156 164 160 161 160 163 165 174 181 176 173 176 179 176 191 212 210 216 198
151 138 257 271 267 237 181 164 136 144 240 168 172 257 254 179 175 162 162 155 152 148 145 145 146 149 149 155 169 167 169 174 182 179 170 173 171 169 182 212 215 195 208 214
105 108 31 335 337 353 8 353 135 135 129 156 171 255 298 147 149 161 155 153 149 140 134 136 143 153 157 162 167 173 178 181 183 176 173 175 175 174 191 209 205 179 170 180
96 102 155 200 238 271 316 316 310 126 151 202 208 212 243 170 161 163 153 153 144 141 143 142 152 161 161 162 168 178 184 180 176 175 175 178 188 192 197 198 194 179 165 159
83 100 139 230 264 357 329 314 319 264 198 190 203 192 211 195 175 170 160 152 142 143 147 151 159 167 166 159 165 175 179 175 177 176 183 193 195 192 187 181 180 178 176 184
65 95 44 349 0 14 348 337 340 355 31 118 130 234 225 171 132 151 161 156 152 154 160 160 159 162 168 171 174 175 185 183 165 172 185 186 176 174 180 192 187 182 191 194
73 101 75 300 323 18 338 329 3 14 30 122 143 235 124 124 151 169 166 155 159 164 165 165 163 164 167 185 179 176 184 164 153 171 181 179 176 183 197 194 184 204 207 194
139 115 129 129 31 241 243 293 67 71 41 54 118 135 146 168 173 162 154 154 154 158 162 164 163 168 173 172 156 162 159 153 154 166 169 178 180 190 194 190 203 221 215 214
143 135 119 116 187 270 307 341 16 63 356 16 74 75 81 97 76 52 116 143 153 153 159 173 172 170 159 152 142 122 126 133 128 146 183 193 181 180 188 198 218 224 218 237
67 99 115 129 168 230 260 305 306 95 5 350 66 87 102 95 98 256 268 133 132 142 147 162 162 145 144 162 145 125 128 117 133 180 191 184 173 171 184 199 205 214 218 230
27 43 111 167 201 251 276 315 19 97 243 299 99 153 136 180 208 215 171 124 136 140 148 154 146 148 164 163 137 129 135 161 197 182 159 154 162 185 192 186 179 177 189 198
164 148 183 149 177 246 302 26 92 209 229 207 242 276 180 209 175 129 128 133 125 117 133 138 139 150 161 148 137 136 163 199 174 136 106 136 204 212 159 146 164 154 151 161
166 180 184 183 206 233 287 126 183 161 112 77 65 6 125 121 125 127 120 102 88 110 147 143 141 139 143 153 147 152 194 174 131 117 111 149 285 282 211 173 187 184 180 195
315 69 94 57 246 272 38 63 55 75 81 66 100 87 111 121 142 136 115 104 93 92 123 141 139 144 157 168 165 179 190 168 138 142 175 192 199 313 312 258 203 191 200 211
271 28 60 60 252 359 13 29 43 41 49 49 28 28 121 115 118 138 143 178 202 140 94 129 159 163 171 166 173 192 176 152 147 174 195 215 212 219 262 267 251 226 226 220
260 183 167 216 234 193 271 294 57 61 43 35 21 18 59 124 139 136 146 159 152 146 150 145 157 168 173 169 196 215 190 164 168 199 216 213 207 217 220 227 326 337 291 272
Height
1499 1505 1510 1505 1502 1503 1503 1508 1510 1503 1494 1499 1504 1507 1507 1506 1506 1508 1509 1509 1510 1512 1514 1515 1517 1518 1518 1520 1520 1521 1522 1523 1524 1524 1525 1526 1526 1527 1527 1527 1527 1527 1527 1526
1506 1508 1497 1494 1494 1497 1500 1507 1507 1501 1494 1499 1507 1509 1505 1505 1506 1506 1508 1509 1510 1511 1513 1515 1516 1517 1518 1519 1520 1521 1522 1522 1523 1524 1525 1525 1526 1526 1526 1526 1526 1526 1526 1525
1507 1499 1490 1493 1495 1498 1500 1504 1503 1503 1499 1500 1508 1516 1511 1506 1506 1507 1508 1508 1509 1509 1511 1513 1514 1516 1517 1518 1519 1520 1521 1522 1523 1524 1524 1525 1525 1525 1525 1525 1525 1525 1525 1524
1499 1491 1491 1493 1494 1495 1503 1490 1491 1496 1509 1518 1514 1534 1518 1508 1507 1507 1507 1507 1508 1508 1509 1511 1513 1514 1516 1517 1519 1520 1521 1522 1522 1523 1523 1523 1523 1523 1524 1524 1524 1524 1524 1523
1498 1490 1491 1493 1489 1488 1492 1484 1489 1495 1508 1520 1518 1529 1525 1511 1511 1507 1506 1505 1506 1507 1508 1509 1511 1513 1515 1516 1518 1519 1520 1521 1522 1522 1523 1523 1523 1523 1523 1523 1523 1523 1523 1522
1490 1485 1485 1484 1480 1481 1483 1489 1494 1503 1515 1534 1525 1528 1529 1515 1508 1504 1503 1503 1504 1505 1506 1508 1510 1512 1513 1515 1517 1518 1520 1520 1521 1521 1522 1522 1522 1522 1522 1521 1521 1521 1521 1521
1496 1487 1481 1479 1485 1483 1486 1507 1527 1533 1541 1539 1521 1524 1521 1501 1496 1497 1499 1500 1501 1503 1504 1507 1509 1510 1512 1514 1515 1517 1518 1519 1520 1520 1521 1520 1521 1521 1520 1520 1520 1520 1520 1519
1509 1506 1484 1478 1482 1488 1488 1501 1527 1541 1546 1538 1524 1525 1511 1494 1492 1494 1496 1498 1499 1501 1502 1504 1506 1508 1510 1512 1513 1515 1516 1517 1518 1519 1519 1519 1519 1519 1519 1519 1519 1518 1518 1518
1506 1503 1479 1475 1473 1477 1487 1495 1498 1519 1529 1538 1532 1519 1505 1495 1494 1495 1496 1498 1498 1499 1500 1502 1505 1506 1508 1510 1511 1513 1514 1515 1517 1517 1518 1518 1518 1518 1518 1518 1517 1517 1517 1516
1490 1499 1485 1476 1473 1474 1479 1486 1503 1518 1535 1543 1533 1525 1518 1503 1499 1496 1498 1498 1497 1498 1499 1502 1504 1505 1507 1509 1510 1512 1513 1514 1515 1516 1516 1516 1516 1516 1516 1516 1515 1515 1515 1514
1483 1499 1494 1486 1487 1488 1486 1490 1500 1514 1520 1537 1542 1528 1495 1494 1492 1494 1495 1496 1496 1497 1499 1501 1503 1505 1507 1509 1510 1511 1512 1513 1514 1515 1515 1514 1514 1514 1514 1514 1513 1513 1513 1512
1481 1495 1504 1493 1480 1475 1479 1486 1497 1514 1519 1522 1530 1521 1486 1487 1488 1490 1492 1493 1495 1497 1498 1500 1502 1504 1506 1508 1508 1509 1510 1511 1511 1512 1513 1513 1513 1512 1512 1512 1511 1511 1510 1510
1480 1497 1514 1510 1498 1486 1484 1484 1488 1499 1512 1521 1527 1516 1487 1487 1488 1490 1490 1492 1494 1496 1498 1500 1502 1503 1504 1505 1506 1507 1508 1509 1510 1510 1510 1510 1510 1510 1510 1510 1509 1508 1508 1507
1476 1496 1509 1516 1509 1496 1492 1486 1484 1495 1512 1515 1511 1505 1493 1490 1490 1490 1491 1492 1494 1494 1496 1498 1500 1501 1502 1503 1505 1505 1506 1507 1508 1508 1508 1507 1507 1508 1508 1507 1507 1506 1506 1505
1479 1495 1494 1494 1489 1487 1488 1486 1484 1488 1494 1502 1499 1497 1492 1487 1487 1489 1490 1491 1493 1495 1495 1497 1499 1500 1501 1502 1503 1503 1504 1505 1505 1506 1505 1505 1505 1505 1505 1505 1504 1504 1503 1503
1483 1493 1494 1495 1488 1487 1489 1486 1484 1484 1486 1490 1492 1493 1485 1485 1486 1488 1489 1489 1491 1493 1495 1496 1497 1499 1500 1500 1501 1502 1502 1502 1503 1503 1503 1503 1503 1503 1503 1502 1502 1502 1501 1500
1489 1494 1502 1506 1494 1492 1502 1493 1488 1489 1487 1489 1496 1493 1487 1487 1487 1487 1487 1488 1489 1491 1492 1494 1495 1497 1498 1499 1499 1500 1500 1500 1500 1500 1500 1500 1500 1500 1500 1500 1500 1499 1499 1498
1488 1496 1505 1508 1505 1515 1501 1486 1484 1487 1488 1486 1486 1485 1485 1485 1484 1485 1486 1487 1487 1489 1491 1492 1493 1495 1496 1497 1497 1498 1498 1498 1498 1497 1497 1498 1498 1498 1497 1497 1496 1496 1495 1495
1480 1491 1504 1513 1515 1509 1495 1486 1486 1489 1493 1487 1486 1485 1485 1484 1485 1486 1487 1486 1487 1487 1489 1491 1492 1493 1494 1494 1494 1494 1495 1495 1495 1495 1494 1494 1495 1494 1493 1493 1492 1492 1492 1492
1482 1487 1501 1510 1513 1515 1500 1485 1481 1485 1496 1488 1486 1486 1486 1485 1491 1489 1486 1486 1486 1487 1488 1489 1490 1491 1492 1493 1493 1492 1492 1492 1492 1492 1491 1491 1491 1491 1490 1489 1489 1489 1489 1488
1494 1497 1504 1509 1512 1505 1490 1483 1482 1498 1499 1488 1486 1485 1485 1485 1486 1485 1485 1485 1485 1486 1486 1487 1488 1489 1489 1490 1490 1490 1490 1490 1489 1489 1489 1488 1488 1487 1487 1487 1486 1486 1486 1486
1498 1504 1506 1509 1513 1509 1487 1484 1489 1492 1487 1486 1485 1485 1484 1483 1483 1484 1483 1484 1484 1484 1485 1485 1486 1486 1487 1487 1487 1487 1487 1487 1488 1487 1486 1486 1485 1485 1485 1484 1484 1484 1484 1483
1494 1495 1497 1500 1501 1491 1486 1486 1487 1487 1486 1486 1485 1484 1483 1483 1482 1482 1482 1483 1483 1483 1483 1484 1484 1485 1485 1486 1485 1485 1485 1485 1485 1485 1484 1484 1483 1483 1483 1482 1482 1481 1481 1480
1490 1487 1491 1494 1491 1488 1487 1486 1486 1486 1486 1485 1484 1483 1482 1481 1481 1481 1482 1482 1482 1481 1482 1482 1482 1483 1483 1483 1483 1483 1483 1483 1482 1482 1482 1481 1480 1480 1480 1480 1479 1479 1478 1477
1489 1488 1492 1494 1490 1488 1487 1486 1486 1485 1484 1484 1483 1482 1480 1479 1480 1480 1480 1481 1481 1481 1480 1481 1481 1481 1480 1481 1481 1481 1481 1480 1479 1479 1478 1478 1478 1477 1477 1476 1476 1475 1475 1474
1487 1488 1492 1493 1488 1488 1487 1486 1485 1484 1483 1482 1481 1481 1479 1479 1479 1479 1479 1479 1479 1479 1479 1479 1479 1479 1478 1478 1478 1478 1478 1477 1476 1476 1475 1475 1474 1474 1473 1473 1472 1472 1472 1471